Weather History for Montego Bay, Jamaica

Change the Weather History Date:

Sunday, February 24, 2013

  Actual Average Record
Temperature  
Mean Temperature 79 °F -  
Max Temperature 88 °F 83 °F 88 °F (2013)
Min Temperature 70 °F 73 °F 68 °F (2009)
Cooling Degree Days 14    
Growing Degree Days 29 (Base 50)    
Moisture  
Dew Point 68 °F    
Average Humidity 68    
Maximum Humidity 78    
Minimum Humidity 49    
Precipitation  
Precipitation 0.00 in - - ()
Sea Level Pressure  
Sea Level Pressure 29.93 in    
Wind  
Wind Speed 7 mph ()    
Max Wind Speed 23 mph    
Max Gust Speed -    
Visibility 8.0 miles    
Events      
Averages and records for this station are not official NWS values.
T = Trace of Precipitation, MM = Missing Value Source: Averaged Metar Reports

Daily Weather History Graph

Daily Weather History Graph

Search for Another Location

Airport:

Trip Planner

Search our weather history database for the weather conditions in past years. The results will help you decide how hot, cold, wet, or windy it might be!

Date:

Astronomy

Feb. 24, 2013 Rise Set
Actual Time 6:33 AM EST 6:16 PM EST
Civil Twilight 6:11 AM EST 6:38 PM EST
Nautical Twilight 5:46 AM EST 7:03 PM EST
Astronomical Twilight 5:20 AM EST 7:28 PM EST
Moon 5:24 PM EST (2/24) 5:26 AM EST (2/24)
Length of Visible Light 12h 26m
Length of Day
11h 42m
Waxing Gibbous, 99% of the Moon is Illuminated
Feb 24
Waxing Gibbous
Feb 25
Full
Mar 4
Last Quarter
Mar 11
New
Mar 19
First Quarter

Hourly Weather History & Observations

Time (EST) Temp. Heat Index Dew Point Humidity Pressure Visibility Wind Dir Wind Speed Gust Speed Precip Events Conditions
12:00 AM 75.2 °F - 66.2 °F 73% 29.98 in 6.2 mi SE 3.5 mph - N/A   Partly Cloudy
1:00 AM 73 °F - 67 °F 75% 29.96 in 12 mi SW 3.5 mph - -   Scattered Clouds
1:00 AM 73.4 °F - 66.2 °F 78% 29.95 in 6.2 mi SW 3.5 mph - N/A   Partly Cloudy
2:00 AM 73.4 °F - 64.4 °F 73% 29.92 in 6.2 mi West 2.3 mph - N/A   Partly Cloudy
3:00 AM 73.4 °F - 64.4 °F 73% 29.92 in 6.2 mi NNE 2.3 mph - N/A   Partly Cloudy
4:00 AM 73 °F - 65 °F 69% 29.92 in 12 mi East 2.3 mph - -   Scattered Clouds
4:00 AM 73.4 °F - 64.4 °F 73% 29.92 in 6.2 mi East 2.3 mph - N/A   Partly Cloudy
5:00 AM 73.4 °F - 64.4 °F 73% 29.92 in 6.2 mi SE 1.2 mph - N/A   Partly Cloudy
6:00 AM 73.4 °F - 66.2 °F 78% 29.95 in 6.2 mi East 3.5 mph - N/A   Partly Cloudy
7:00 AM 72 °F - 65 °F 73% 29.96 in 15 mi SE 2.3 mph - -   Scattered Clouds
7:00 AM 71.6 °F - 64.4 °F 78% 29.95 in 6.2 mi SE 2.3 mph - N/A   Partly Cloudy
9:00 AM 80.6 °F 83.2 °F 68.0 °F 65% 30.01 in 6.2 mi NNW 3.5 mph - N/A   Scattered Clouds
10:00 AM 82 °F - 69 °F 56% 30.01 in 15 mi NE 8.1 mph - -   Scattered Clouds
10:00 AM 82.4 °F 86.3 °F 69.8 °F 66% 30.01 in 6.2 mi NE 8.1 mph - N/A   Partly Cloudy
11:00 AM 84.2 °F 87.3 °F 68.0 °F 58% 29.98 in 6.2 mi ENE 13.8 mph - N/A   Partly Cloudy
12:00 PM 86.0 °F 90.4 °F 69.8 °F 58% 29.95 in 6.2 mi ENE 16.1 mph - N/A   Partly Cloudy
1:00 PM 86 °F - 70 °F 49% 29.93 in 16 mi ENE 20.7 mph - -   Scattered Clouds
1:00 PM 86.0 °F 90.4 °F 69.8 °F 58% 29.92 in 6.2 mi ENE 20.7 mph - N/A   Partly Cloudy
2:00 PM 86.0 °F 91.8 °F 71.6 °F 62% 29.89 in 6.2 mi ENE 18.4 mph - N/A   Partly Cloudy
3:00 PM 86.0 °F 90.4 °F 69.8 °F 58% 29.86 in 6.2 mi ENE 20.7 mph - N/A   Scattered Clouds
4:00 PM 82 °F - 70 °F 59% 29.88 in 16 mi ENE 17.3 mph - -   Mostly Cloudy
4:00 PM 86.0 °F 90.4 °F 69.8 °F 58% 29.86 in 6.2 mi ENE 20.7 mph - N/A   Mostly Cloudy
5:00 PM 86.0 °F 91.8 °F 71.6 °F 62% 29.89 in 6.2 mi ENE 23.0 mph - N/A   Mostly Cloudy
6:00 PM 84.2 °F 89.6 °F 71.6 °F 66% 29.89 in 6.2 mi ENE 21.9 mph - N/A   Mostly Cloudy
7:00 PM 79 °F - 71 °F 70% 29.90 in 12 mi ESE 11.5 mph - -   Partly Cloudy
7:00 PM 78.8 °F - 71.6 °F 78% 29.89 in 6.2 mi ESE 11.5 mph - N/A   Scattered Clouds
8:00 PM 78.8 °F - 69.8 °F 74% 29.89 in 6.2 mi East 9.2 mph - N/A   Mostly Cloudy
9:00 PM 78.8 °F - 69.8 °F 74% 29.92 in 6.2 mi East 8.1 mph - N/A   Mostly Cloudy
10:00 PM 77.0 °F - 69.8 °F 78% 29.89 in 6.2 mi East 4.6 mph - N/A   Partly Cloudy
11:00 PM 77.0 °F - 68.0 °F 74% 29.92 in 6.2 mi SW 2.3 mph - N/A   Partly Cloudy